Temp
9 9 9 9 10 9 10 10 10 10 10 10 10 10 10 10 9 9 9 8 7 6 6 5 5 5 3 3 3 3 3 3 2 3 2 2 2 2 2 2 1 1 1 1
9 9 9 9 9 9 9 9 10 10 11 10 10 10 10 10 10 9 9 8 7 6 6 6 5 5 3 3 3 3 3 3 3 2 2 2 2 2 2 1 2 2 1 1
9 9 9 9 9 9 9 9 10 10 11 10 10 10 10 10 10 9 8 7 7 6 5 6 6 5 4 3 3 3 2 2 3 3 3 2 2 2 1 1 2 1 1 2
9 9 9 9 9 9 9 10 10 10 11 10 10 9 11 11 10 9 8 9 7 6 6 6 6 5 4 3 3 3 2 2 2 3 3 3 2 2 2 2 2 2 1 2
9 9 9 9 9 10 10 10 10 11 11 10 10 10 11 11 10 9 9 9 8 7 7 7 6 5 4 4 3 3 3 3 3 2 3 3 2 2 2 1 1 2 2 2
9 9 9 10 10 10 11 11 11 11 10 7 10 10 10 10 10 10 9 9 8 7 7 7 6 5 4 4 4 4 3 3 2 3 3 3 3 2 2 2 2 2 3 3
9 9 10 9 10 11 11 11 10 7 5 4 11 10 10 10 10 10 10 9 9 7 7 7 6 6 5 5 4 4 4 3 3 3 3 3 3 3 3 3 3 3 3 2
9 9 10 10 10 11 11 11 10 6 4 8 10 9 11 11 11 10 10 9 9 8 7 7 7 6 5 5 4 4 4 4 4 3 3 3 3 3 3 3 3 3 3 3
9 9 10 10 10 11 11 11 11 10 10 9 10 11 10 10 11 10 10 10 9 8 7 7 7 6 5 5 5 4 4 4 4 4 3 3 3 3 3 3 3 3 3 3
10 10 10 10 10 11 11 11 10 10 6 6 9 10 10 10 10 10 10 10 9 8 7 7 7 6 6 5 5 5 4 4 4 4 4 4 3 3 4 4 4 4 4 3
10 10 10 10 10 10 11 10 10 10 9 5 3 9 11 11 10 10 10 10 9 8 7 7 7 7 5 5 5 5 4 4 4 5 4 4 4 3 3 4 4 3 3 4
10 10 10 10 10 10 11 11 10 7 8 8 8 10 11 11 10 10 10 10 9 8 7 7 7 7 6 6 5 5 5 5 5 5 5 5 5 5 4 4 4 4 4 4
10 9 9 8 9 10 10 10 10 10 7 7 6 8 10 11 10 10 10 10 9 8 7 7 7 7 6 6 5 6 6 5 6 5 5 5 5 5 5 5 5 5 4 4
11 11 10 9 10 10 10 10 9 8 8 8 7 8 10 11 10 9 9 9 10 9 8 8 8 7 6 6 6 6 6 6 6 6 6 6 5 5 5 5 5 5 5 5
9 10 10 10 10 10 10 10 10 9 9 8 9 8 10 11 11 11 10 10 9 9 8 8 8 8 7 7 6 6 6 6 6 6 6 6 6 6 5 5 5 5 5 5
9 10 10 9 9 9 9 9 9 9 8 8 9 7 9 10 10 8 9 10 10 9 9 8 8 8 7 7 7 6 6 6 6 6 6 6 6 6 6 5 5 6 6 6
9 8 10 8 8 8 6 8 8 7 7 8 7 8 8 10 10 10 10 10 10 10 9 9 9 9 8 7 7 7 7 6 6 6 6 6 6 6 6 6 5 5 5 5
7 10 9 8 7 4 7 8 9 7 7 8 8 8 9 9 10 10 10 10 10 10 9 10 9 9 8 8 8 7 7 7 6 6 6 6 6 6 6 6 6 5 5 5
7 10 9 7 5 6 7 7 8 7 8 8 9 9 9 9 8 9 10 10 11 10 9 10 10 9 9 9 8 8 8 7 7 6 6 6 6 6 6 6 6 5 5 5
8 8 9 7 6 3 7 8 9 9 8 9 9 9 9 10 9 10 10 10 10 10 10 10 9 9 9 9 8 8 8 8 7 7 6 6 6 6 6 6 6 5 5 5
5 6 6 7 7 5 7 7 7 6 8 9 9 10 10 8 9 10 10 10 10 11 10 10 10 10 10 9 9 9 9 9 8 7 6 6 6 5 5 5 5 5 5 5
6 5 5 5 4 5 6 6 7 9 9 9 9 9 9 10 9 9 9 10 10 11 10 10 10 10 10 10 9 9 9 9 8 8 7 6 6 6 5 5 4 4 4 4
5 5 6 6 6 7 8 8 9 8 8 9 9 9 9 9 9 9 9 9 10 10 10 10 10 10 10 10 10 9 9 9 8 7 7 7 6 6 5 4 4 4 4 4
5 6 6 6 7 7 7 7 8 9 8 8 8 9 10 10 9 9 9 10 10 11 10 10 10 10 10 10 10 10 9 9 8 7 6 6 6 6 5 4 4 3 3 3
6 5 6 6 6 7 7 7 7 7 7 7 8 7 8 8 9 9 9 9 10 10 10 10 10 10 10 10 10 10 9 9 8 8 6 5 5 5 5 4 4 3 4 3
5 5 5 6 6 7 7 7 6 6 7 7 7 7 8 8 8 8 9 9 9 10 10 10 10 10 10 10 9 9 9 9 8 7 7 5 5 5 5 4 3 3 3 4
Height
3146 3146 3144 3148 3149 3150 3150 3149 3147 3147 3148 3146 3146 3146 3146 3146 3146 3144 3142 3142 3143 3141 3138 3134 3131 3126 3122 3119 3114 3111 3107 3102 3097 3093 3091 3088 3085 3084 3083 3081 3081 3081 3079 3080
3143 3138 3143 3145 3145 3146 3146 3146 3143 3143 3141 3143 3143 3143 3143 3143 3143 3141 3141 3141 3141 3139 3137 3134 3131 3126 3123 3120 3117 3113 3110 3105 3100 3097 3094 3091 3088 3087 3086 3084 3083 3083 3087 3087
3135 3137 3141 3142 3142 3143 3142 3142 3140 3143 3142 3143 3143 3141 3142 3141 3141 3140 3139 3140 3140 3138 3135 3133 3131 3126 3124 3121 3119 3116 3113 3109 3105 3101 3098 3095 3093 3091 3090 3091 3088 3088 3089 3092
3131 3133 3135 3137 3137 3139 3138 3139 3139 3141 3141 3141 3141 3138 3138 3138 3136 3136 3137 3139 3138 3137 3134 3132 3130 3127 3124 3123 3121 3118 3115 3112 3109 3105 3103 3101 3099 3097 3097 3097 3098 3097 3098 3099
3122 3128 3131 3131 3132 3134 3136 3138 3138 3138 3137 3138 3137 3135 3133 3136 3133 3133 3135 3137 3136 3135 3133 3132 3130 3127 3125 3124 3122 3121 3118 3116 3113 3110 3108 3106 3105 3104 3104 3105 3105 3102 3102 3093
3122 3125 3126 3126 3129 3131 3134 3136 3136 3135 3136 3134 3134 3133 3129 3130 3129 3130 3134 3135 3134 3134 3132 3131 3129 3127 3126 3125 3123 3122 3120 3118 3117 3115 3113 3112 3112 3111 3111 3110 3110 3110 3110 3111
3119 3119 3120 3124 3126 3127 3130 3132 3133 3136 3136 3132 3130 3129 3124 3125 3125 3127 3130 3132 3132 3132 3131 3131 3129 3128 3127 3126 3125 3125 3123 3121 3120 3119 3119 3117 3117 3116 3117 3117 3118 3117 3117 3117
3113 3114 3116 3117 3121 3122 3125 3128 3129 3135 3136 3128 3127 3126 3122 3121 3120 3125 3130 3130 3131 3131 3131 3131 3129 3128 3128 3127 3127 3126 3125 3124 3122 3121 3122 3121 3120 3121 3121 3121 3121 3122 3122 3122
3107 3107 3112 3113 3117 3119 3121 3122 3125 3126 3127 3127 3125 3125 3123 3120 3120 3123 3127 3128 3129 3129 3130 3130 3129 3129 3128 3128 3128 3128 3127 3127 3125 3124 3123 3123 3123 3123 3124 3125 3125 3126 3127 3127
3101 3104 3106 3108 3111 3113 3112 3119 3119 3120 3125 3127 3122 3122 3121 3120 3118 3121 3124 3126 3126 3127 3128 3129 3129 3129 3128 3129 3129 3129 3129 3129 3128 3127 3127 3126 3126 3127 3128 3128 3129 3130 3131 3131
3095 3099 3102 3104 3103 3107 3109 3110 3112 3116 3117 3122 3124 3119 3117 3115 3116 3119 3121 3125 3125 3126 3126 3127 3129 3128 3128 3129 3130 3130 3131 3131 3131 3129 3129 3129 3129 3130 3130 3131 3132 3133 3135 3136
3086 3091 3093 3094 3098 3101 3102 3102 3105 3110 3114 3118 3120 3115 3115 3115 3113 3115 3120 3123 3123 3125 3125 3126 3128 3128 3128 3129 3131 3131 3132 3132 3132 3132 3132 3132 3132 3132 3133 3135 3136 3137 3138 3139
3078 3081 3085 3087 3091 3093 3094 3100 3101 3103 3115 3114 3117 3113 3112 3112 3112 3114 3117 3120 3122 3123 3123 3124 3126 3128 3128 3129 3131 3132 3132 3133 3133 3133 3133 3134 3135 3135 3136 3137 3139 3140 3141 3141
3067 3070 3068 3072 3079 3086 3091 3093 3097 3104 3105 3106 3109 3110 3109 3107 3108 3110 3115 3118 3120 3121 3121 3123 3124 3127 3128 3129 3131 3132 3133 3134 3135 3135 3135 3136 3137 3137 3138 3139 3140 3142 3144 3145
3059 3057 3061 3066 3073 3078 3082 3086 3090 3091 3094 3098 3101 3105 3105 3104 3105 3107 3111 3115 3117 3119 3119 3120 3122 3125 3126 3128 3130 3132 3133 3135 3136 3137 3137 3138 3139 3139 3140 3141 3143 3144 3146 3147
3050 3050 3055 3059 3065 3071 3074 3078 3083 3084 3090 3093 3098 3100 3104 3104 3106 3109 3111 3112 3114 3116 3117 3118 3119 3121 3124 3127 3129 3131 3133 3135 3136 3138 3138 3140 3141 3142 3143 3144 3146 3147 3149 3151
3038 3044 3047 3053 3059 3065 3066 3067 3076 3082 3084 3087 3091 3096 3102 3102 3101 3101 3102 3108 3110 3112 3114 3115 3116 3117 3121 3125 3128 3131 3132 3134 3136 3138 3139 3140 3142 3144 3145 3146 3148 3150 3152 3154
3037 3038 3046 3047 3055 3057 3052 3065 3072 3075 3079 3083 3086 3091 3094 3095 3098 3100 3101 3104 3106 3107 3111 3113 3114 3114 3118 3122 3125 3129 3131 3133 3135 3138 3140 3141 3143 3145 3147 3148 3150 3152 3154 3156
3029 3028 3034 3039 3045 3048 3050 3055 3063 3067 3071 3075 3082 3086 3089 3089 3093 3094 3098 3099 3103 3104 3109 3111 3113 3113 3115 3118 3122 3125 3127 3130 3133 3136 3139 3141 3144 3146 3148 3150 3152 3153 3156 3158
3019 3023 3028 3033 3038 3039 3042 3051 3059 3065 3061 3070 3074 3079 3084 3082 3082 3085 3091 3094 3095 3101 3104 3108 3110 3111 3112 3114 3117 3120 3124 3127 3130 3133 3137 3140 3142 3145 3148 3150 3152 3154 3156 3159
3014 3019 3023 3026 3031 3035 3038 3044 3051 3059 3053 3064 3066 3072 3075 3077 3082 3088 3089 3091 3094 3097 3100 3104 3107 3108 3110 3112 3114 3117 3119 3123 3128 3131 3134 3137 3140 3143 3146 3149 3152 3154 3156 3158
3005 3014 3018 3024 3028 3033 3035 3038 3043 3046 3051 3055 3058 3060 3066 3071 3076 3081 3083 3086 3090 3091 3096 3098 3102 3104 3107 3110 3112 3115 3116 3120 3124 3127 3131 3134 3137 3140 3143 3146 3149 3152 3154 3156
3004 3006 3011 3020 3021 3029 3032 3033 3038 3041 3045 3047 3050 3053 3060 3064 3068 3074 3079 3080 3082 3085 3090 3093 3096 3100 3104 3107 3110 3112 3115 3115 3118 3121 3125 3129 3133 3137 3139 3142 3145 3147 3150 3152
2999 3002 3010 3015 3018 3023 3025 3028 3032 3033 3037 3042 3046 3050 3053 3057 3065 3067 3071 3073 3074 3077 3082 3089 3092 3095 3099 3104 3106 3109 3111 3114 3115 3116 3118 3123 3128 3132 3135 3138 3141 3144 3146 3149
2989 2998 3004 3011 3013 3016 3019 3022 3026 3029 3033 3037 3039 3043 3049 3055 3061 3063 3065 3066 3071 3074 3078 3083 3087 3091 3095 3099 3102 3104 3106 3109 3111 3113 3116 3117 3121 3125 3129 3132 3136 3139 3143 3145
2985 2990 2998 3002 3006 3010 3015 3019 3023 3028 3032 3034 3036 3040 3044 3049 3054 3055 3057 3060 3067 3070 3075 3077 3082 3086 3090 3093 3097 3099 3101 3103 3106 3109 3111 3114 3116 3119 3122 3126 3130 3134 3138 3141
Wind_Speed
23 26 32 30 28 29 25 23 26 26 23 25 21 11 13 13 19 21 21 20 19 20 20 19 17 14 14 17 18 14 18 16 19 19 14 13 12 11 10 11 12 13 13 39
27 32 29 19 18 20 25 25 30 28 22 28 21 13 16 18 21 23 19 16 18 19 17 15 13 11 11 13 16 13 15 14 17 17 14 13 12 13 13 13 11 13 18 30
32 31 26 25 25 25 27 27 25 25 16 24 12 17 17 15 18 24 19 13 17 16 13 10 10 8 9 10 14 14 14 13 14 16 15 16 16 20 22 21 21 26 31 34
31 29 26 25 27 24 28 21 22 26 15 28 18 6 12 14 21 27 20 13 13 12 9 7 7 5 6 7 11 12 13 13 12 16 15 15 18 21 23 15 19 19 24 28
41 31 25 27 29 24 24 18 22 21 17 21 17 11 13 16 21 28 21 12 7 9 8 5 4 4 4 5 8 9 11 10 10 14 15 16 16 21 23 19 23 21 21 20
35 25 26 25 19 21 18 21 16 9 14 8 15 17 22 21 25 28 17 8 3 8 7 5 2 2 1 5 7 9 10 12 10 11 14 17 19 16 17 19 21 21 21 21
36 34 32 33 29 24 29 19 12 5 3 6 27 15 24 24 26 27 21 2 2 7 7 7 2 2 0 4 7 8 10 10 10 8 13 16 14 15 16 17 17 16 16 16
35 31 32 28 24 25 27 24 16 7 3 13 17 7 23 18 21 26 16 5 7 8 8 8 4 3 2 6 8 9 9 10 8 9 9 14 16 14 11 13 13 12 13 13
32 39 32 29 23 30 29 30 30 22 22 5 11 19 26 14 15 23 22 9 8 8 10 10 7 4 5 7 8 10 10 10 8 9 7 9 11 13 11 9 9 8 11 11
38 33 38 28 31 31 35 29 25 20 5 5 8 13 18 18 19 21 24 12 9 10 12 12 10 7 6 6 7 10 10 11 10 9 9 8 9 10 10 9 8 6 7 10
39 39 27 29 33 24 30 27 17 14 10 3 3 11 21 18 18 22 24 13 10 9 11 12 13 10 8 7 7 9 7 7 8 11 10 8 8 8 8 9 9 9 10 12
46 44 39 33 29 23 26 33 23 2 7 5 12 18 12 12 16 23 22 17 13 12 10 13 16 13 11 9 8 8 7 5 7 10 12 11 8 8 9 9 10 10 10 10
49 41 27 20 30 29 32 30 28 25 24 26 4 15 14 15 15 18 19 18 13 14 14 16 19 17 14 12 10 8 9 7 8 11 12 13 13 10 10 11 11 11 11 11
40 50 51 34 36 33 33 33 28 33 32 28 23 25 22 17 25 26 24 29 15 16 17 15 21 20 17 15 13 11 10 9 9 9 12 13 14 15 14 12 11 11 11 11
27 49 48 49 42 39 41 40 36 41 41 30 39 20 27 12 15 20 23 25 26 21 20 15 21 22 21 18 16 14 11 10 12 11 11 12 11 13 14 15 15 15 15 15
30 43 43 25 32 30 34 34 38 36 42 37 34 29 20 12 12 20 31 22 26 23 20 15 20 23 25 22 18 16 14 12 12 13 13 13 12 13 17 19 20 20 21 22
41 38 29 26 26 26 22 34 31 36 42 43 36 33 22 17 24 23 24 29 22 23 17 10 13 24 25 25 22 18 16 15 14 14 15 16 15 15 17 18 19 20 20 21
35 29 35 22 25 9 22 26 32 38 37 42 44 25 22 19 29 24 20 32 24 22 18 11 10 19 25 26 24 21 19 17 16 16 15 15 16 17 18 19 19 19 19 19
30 39 21 18 25 11 23 27 35 34 34 35 32 26 20 24 21 30 28 21 21 23 24 11 6 8 21 25 27 25 23 21 20 19 17 16 16 17 17 17 16 16 16 16
25 24 32 23 14 9 17 33 33 32 36 35 32 28 21 21 27 25 26 19 22 25 25 19 15 11 12 22 26 27 25 25 23 21 19 18 18 18 17 16 16 15 15 14
24 22 21 22 16 9 16 25 23 31 32 34 42 41 32 20 21 16 17 20 22 21 21 23 22 14 9 12 18 23 22 24 22 22 21 21 20 19 18 17 17 16 15 13
33 23 18 18 13 7 22 23 29 30 23 26 30 32 34 23 31 18 19 22 20 24 29 30 23 20 17 18 15 11 11 16 23 24 24 23 22 22 23 20 18 18 16 15
30 29 26 28 29 22 22 32 30 23 27 26 24 35 36 22 25 19 20 23 30 21 28 27 27 22 20 20 20 15 7 12 19 25 27 26 25 24 23 22 21 20 19 17
27 23 24 22 23 19 21 20 23 30 24 20 23 25 33 34 22 22 25 25 28 32 34 30 28 24 22 18 17 16 16 12 15 21 26 28 26 25 24 23 19 17 14 11
32 30 26 24 15 14 15 13 10 6 13 20 23 26 31 34 39 29 29 16 28 23 28 33 33 30 23 22 19 14 21 22 19 18 23 27 29 26 25 22 19 17 12 11
21 28 30 29 20 16 16 16 13 12 10 12 16 14 17 19 21 30 28 25 24 34 37 30 29 24 26 26 23 21 21 22 26 22 20 26 30 29 27 25 21 18 19 19
Wind_Direction
231 239 241 250 252 257 255 257 272 271 288 247 238 261 261 288 270 270 292 305 325 306 326 323 317 345 1 359 5 11 20 20 31 41 45 51 67 75 80 85 115 121 132 107
237 241 246 250 254 254 248 261 268 269 295 230 236 259 252 263 276 274 285 308 316 303 317 313 313 347 360 3 14 16 23 30 34 44 50 61 68 79 87 93 115 126 123 124
232 244 247 254 256 251 249 254 258 269 264 211 234 248 257 260 263 253 263 287 305 303 302 306 310 349 357 2 23 28 41 38 40 55 58 74 83 93 93 95 105 104 127 133
237 250 249 247 262 258 249 243 259 267 253 212 228 256 269 279 277 238 245 284 287 297 292 294 309 354 0 358 28 31 48 49 46 56 62 79 96 107 103 97 101 106 126 132
239 247 250 248 251 257 249 249 261 267 247 212 235 263 273 272 262 226 233 258 267 296 283 277 303 3 6 18 27 41 48 52 49 67 72 91 107 111 106 90 99 85 81 107
244 255 251 250 267 250 247 248 242 252 218 239 248 261 274 267 250 232 219 232 242 282 280 255 286 28 346 38 45 38 46 53 53 81 86 103 114 98 99 85 88 88 91 92
233 247 251 257 272 239 236 233 232 262 277 236 271 284 275 269 246 240 236 217 251 266 276 235 207 92 16 74 71 58 57 53 64 92 101 112 118 112 110 98 99 89 84 90
227 239 245 246 259 215 208 223 214 208 205 264 273 285 292 274 243 235 225 259 280 249 271 227 185 146 104 97 98 78 67 69 58 77 117 118 119 122 118 109 100 89 78 87
229 237 248 242 259 232 211 226 242 239 240 243 276 289 275 216 199 209 216 237 275 257 255 232 188 179 112 98 112 91 74 78 82 81 93 122 125 128 128 117 107 94 94 91
229 238 245 247 259 230 222 235 227 226 193 247 262 265 235 209 229 215 208 230 259 257 236 232 195 174 140 118 124 106 92 89 91 98 96 105 127 140 142 142 137 124 111 110
232 229 235 241 245 244 217 216 214 222 204 190 247 260 255 234 252 222 218 232 260 277 230 228 200 170 166 151 134 118 111 100 91 101 106 110 109 125 146 149 142 131 123 117
227 231 232 234 243 236 225 211 212 172 231 274 259 261 261 252 241 228 241 225 257 263 244 222 205 178 173 169 148 139 124 109 105 101 113 112 117 125 124 130 132 135 133 124
226 218 214 225 227 220 214 238 238 229 241 265 285 275 236 195 215 237 218 215 247 253 252 218 206 189 178 174 164 155 135 135 112 98 103 107 116 131 145 148 144 139 136 130
229 221 219 217 224 222 209 217 225 231 229 247 262 290 219 237 213 227 229 220 240 256 250 233 207 196 185 179 172 174 149 138 134 119 113 110 108 114 129 142 146 146 146 143
234 216 222 225 229 235 233 230 231 221 232 227 244 283 240 229 218 221 214 215 229 246 252 241 209 201 192 188 178 178 162 150 152 140 131 127 110 108 118 124 132 137 136 137
232 217 217 210 220 220 221 229 234 240 236 240 235 252 263 226 195 200 232 222 226 234 245 238 213 202 200 196 188 183 174 164 155 151 144 142 129 124 120 119 120 122 125 127
191 222 195 189 200 203 214 220 233 240 224 221 232 250 262 247 228 218 217 213 229 226 225 221 216 201 202 200 196 191 182 176 164 161 156 151 145 142 136 129 124 121 121 121
238 206 212 195 178 210 227 227 228 230 226 228 231 247 259 261 246 237 226 215 219 223 218 203 212 203 200 203 201 195 193 189 179 174 171 166 160 155 150 143 137 135 133 133
235 209 191 184 197 204 212 208 213 222 237 227 226 237 246 242 237 230 238 227 229 218 221 198 174 192 201 203 204 201 198 195 194 187 179 176 174 171 167 161 157 152 148 143
197 211 207 194 193 210 212 210 221 236 247 229 241 235 243 256 223 219 227 239 205 209 211 196 186 185 194 204 207 209 206 201 200 197 190 188 183 180 182 181 178 174 170 166
193 197 204 191 205 217 211 215 210 213 244 250 244 245 236 228 208 230 232 240 228 219 210 199 199 197 190 189 208 217 215 212 206 202 204 201 198 191 190 197 196 195 196 195
200 192 197 192 197 203 165 176 201 241 252 254 249 232 212 219 198 225 231 229 236 233 212 210 205 199 206 198 194 207 219 226 216 212 210 212 211 205 201 203 209 214 218 218
205 205 199 214 229 233 235 247 256 251 252 266 241 218 212 218 197 224 248 232 226 218 206 206 208 205 211 220 216 208 206 224 228 224 223 218 214 215 213 212 216 224 231 239
203 206 215 220 230 234 234 233 231 245 239 234 225 228 230 232 239 249 257 238 226 230 217 215 207 212 210 221 228 223 223 220 234 235 235 232 227 223 218 217 220 228 233 241
206 199 214 226 227 203 202 200 188 175 218 222 234 223 233 233 228 239 249 223 209 209 209 220 218 221 211 222 232 228 223 228 232 239 236 236 235 233 229 222 219 222 228 253
199 203 205 211 201 189 202 207 210 182 199 209 211 238 238 226 220 221 234 209 203 230 220 213 213 224 221 229 240 238 231 233 236 241 241 234 232 231 234 230 235 243 257 268